User: anonymous   Login
Location: Albany
(35.0000°S, 118.0000°E)
Time: 19:05:12
(UTC-05:00)
Language:

Cosmos 1933 - Orbit

View from above orbital plane
View from above orbital plane
View from above satellite
View from above satellite

Ground track
Ground track

The orbit data is extracted from the following two-line orbital elements,

1 18958U 88020A   18021.06168339  .00000419  00000-0  28732-4 0  9997
2 18958  82.5286 253.5900 0010183 260.9445  99.0628 15.03383319624261
Epoch (UTC): 21 January 2018 01:28:49
Eccentricity: 0.0010183
inclination: 82.5286°
perigee height: 549 km
apogee height: 563 km
right ascension of ascending node: 253.5900°
argument of perigee: 260.9445°
revolutions per day: 15.03383319
mean anomaly at epoch: 99.0628°
orbit number at epoch: 62426

The dashed part of the orbit path shows where the satellite is in the earth's shadow,  

DLR